{"data":{"norad_id":68322,"intl_designator":"2026-059B","name":"STARLINK-37088","alt_names":[],"object_type":"PAYLOAD","status":"ACTIVE","operator":null,"country":"US","launch_date":"2026-03-22","launch_site_code":"AFETR","launch_vehicle":null,"mission":null,"orbit_class":"UNKNOWN","rcs_meters":null,"size_class":null,"mass_kg":null,"dimensions":null,"purposes":["comms"],"wikipedia_slug":null,"has_3d_model":false,"image_url":null,"decayed_at":null,"tle_current":{"epoch":"2026-09-19T05:26:22.069248Z","epoch_age_seconds":158423,"freshness":"FRESH","line1":"1 68322U 26059B   26262.22664432  .00014911  00000+0  45156-3 0  9999","line2":"2 68322  53.1576 161.7215 0000973  95.7466 264.3648 15.34401086 27913","mean_motion":15.34401086,"eccentricity":9.73e-5,"inclination_deg":53.1576,"raan_deg":161.7215,"arg_perigee_deg":95.7466,"mean_anomaly_deg":264.3648,"bstar":0.00045156,"rev_number":2791,"period_min":93.847691658894,"perigee_km":462.03439894684,"apogee_km":463.36562582945,"semimajor_km":6840.8370123881,"source":"CELESTRAK","updated_at":"2026-09-20T09:00:43.882753Z"}}}